Regional Weather Roundup
Issued by NWS Upton, NY

Current Version | Previous Version | Text Only | Print | Product List | Glossary On
Versions: 1 2 3 4 5 6 7 8 9 10 11 12 13 14 15 16 17 18 19 20 21 22 23 24 25 26 27 28 29 30 31 32 33 34 35 36 37 38 39 40 41 42 43 44 45 46 47 48 49 50
000 ASUS41 KOKX 311604 RWROKX REGIONAL WEATHER ROUNDUP NATIONAL WEATHER SERVICE NEW YORK NY 1200 PM EDT FRI JUL 31 2015 NOTE: "FAIR" INDICATES FEW OR NO CLOUDS BELOW 12,000 FEET WITH NO SIGNIFICANT WEATHER AND/OR OBSTRUCTIONS TO VISIBILITY. NYZ071-072-176-178-NJZ106-104-311700- NEW YORK CITY METRO AREA CITY SKY/WX TMP DP RH WIND PRES REMARKS CENTRAL PARK SUNNY 86 58 38 CALM 29.90F LAGUARDIA APRT MOSUNNY 85 58 39 NW10 29.86F KENNEDY INTL MOSUNNY 89 53 29 VRB7 29.87F NEWARK/LIBERTY MOSUNNY 89 57 33 NW13G18 29.87F BRNX BOT. GARD N/A 84 57 39 W13 29.88F TETERBORO MOSUNNY 85 58 39 NW8 29.86F $$ NYZ177-179-078>081-311700- LONG ISLAND NEW YORK CITY SKY/WX TMP DP RH WIND PRES REMARKS FARMINGDALE SUNNY 86 55 34 NW9 29.87F ISLIP MOSUNNY 86 54 33 VRB6G18 29.85S SHIRLEY SUNNY 88 54 31 W12 29.87S WESTHAMPTON SUNNY 88 53 30 MISG 29.87S MONTAUK POINT N/A 83 62 49 W7 29.86F $$ NYZ052-065-067-311700- HUDSON VALLEY CITY SKY/WX TMP DP RH WIND PRES REMARKS WHITE PLAINS MOSUNNY 82 62 50 NW10 29.88F NEWBURGH SUNNY 84 57 39 NW13G20 29.89F MONTGOMERY SUNNY 84 56 38 NW12G21 29.87F POUGHKEEPSIE SUNNY 85 55 35 W10 29.85F ALBANY MOSUNNY 81 58 45 W15G23 29.85S $$ NJZ001-105-106-008-010-013-015-019>022-104-311700- NEW JERSEY CITY SKY/WX TMP DP RH WIND PRES REMARKS NEWARK/LIBERTY MOSUNNY 89 57 33 NW13G18 29.87F TETERBORO MOSUNNY 85 58 39 NW8 29.86F CALDWELL SUNNY 85 57 38 N9 29.88F MORRISTOWN MOSUNNY 88 59 37 W7 29.89F SOMERVILLE SUNNY 86 58 38 VRB6 29.87F SUSSEX SUNNY 83 60 45 VRB6 29.89F ANDOVER N/A 83 60 45 MISG 29.91S TRENTON SUNNY 85 59 41 VRB5 29.89F MILLVILLE SUNNY 86 60 41 W10 29.91F ATLANTIC CITY SUNNY 85 60 42 NW9 29.91S WRIGHTSTOWN MOSUNNY 85 63 47 NW6 29.87F TOMS RIVER N/A 86 61 42 N7 29.89F BELMAR SUNNY 84 61 45 NW12 29.89F $$ PAZ047>061-062-071-311700- EASTERN PENNSYLVANIA CITY SKY/WX TMP DP RH WIND PRES REMARKS PHILADELPHIA MOSUNNY 86 55 34 W8 29.90F ALLENTOWN SUNNY 84 61 45 N8 29.91F SCRANTON MOSUNNY 81 58 45 W7 29.93F $$ CTZ002-004>006-009-010-012-RIZ004-006-007-MAZ004-011-015-311700- SOUTHERN NEW ENGLAND IN CT CITY SKY/WX TMP DP RH WIND PRES REMARKS BRADLEY INTL MOSUNNY 84 57 39 W13 29.83S HARTFORD SUNNY 85 60 42 W12 29.83F DANBURY SUNNY 81 59 47 W12 29.88F WTRBRY/OXFORD NOT AVBL BRIDGEPORT SUNNY 83 66 56 SW13 29.85F MERIDEN SUNNY 86 57 37 VRB6 29.84F NEW HAVEN SUNNY 79 68 69 S10 29.85F CHESTER FAIR 82 61 47 NW5 29.87S GROTON SUNNY 80 67 64 SW12 29.84S WILLIMANTIC SUNNY 83 61 47 W6 29.84S IN RI CITY SKY/WX TMP DP RH WIND PRES REMARKS PROVIDENCE MOSUNNY 85 60 42 W14 29.83S BLOCK ISLAND N/A 81 66 61 W10 29.86F WESTERLY SUNNY 80 68 66 SW10 29.85S IN MA CITY SKY/WX TMP DP RH WIND PRES REMARKS BOSTON MOSUNNY 87 54 32 SW17G24 29.78F WORCESTER MOSUNNY 78 61 55 W15G22 29.86S WESTFIELD SUNNY 84 53 34 W12 29.83F PROVINCETOWN SUNNY 84 63 48 W9 29.80F NANTUCKET SUNNY 84 66 54 SW12 29.82S $$ ANZ330-335-338-340-345-350-353-355-311700- COASTAL MARINE OBSERVATIONS STATION/POSITION TIME SKY/WX TEMP WIND PRES VSBY WAVE AIR SEA DIR/SP/G HT/PER (UTC) (F) (DEG/KT/KT) (MB) (MI) (FT/S) NY HARB ENTRANCE 1450 76 77 280/ 8/ 10 1011.6 2/10 4S FIRE IS NOT AVBL 20S FIRE ISLAND 1450 75 75 300/ 8/ 10 1011.5 3/ 6 GREAT SOUTH BAY 1500 80 82 230/ 6/ 6 N/A 23SW MTP 1550 74 74 260/ 8/ 8 1010.9 3/ 6 HUDSON CANYON NOT AVBL KINGS POINT 1500 81 70 CALM / 1 1011.1 EXECUTION ROCKS 1500 77 210/ 2/ 4 N/A CENTRAL LI SOUND NOT AVBL EASTERN LI SOUND 1500 73 70 250/ 8/ 10 N/A ROBBINS REEF 1500 81 290/ 5/ 5 1010.7 $$ >>>>>>>>>>>>>>>>>>>>>>>>>>>> KEY <<<<<<<<<<<<<<<<<<<<<<<<<<< > < > SKY/WX - SKY CONDITION/PRESENT WEATHER < > TMP - TEMPERATURE IN FAHRENHEIT < > DP - DEWPOINT IN FAHRENHEIT < > RH - RELATIVE HUMIDITY IN PERCENT < > WIND - DIRECTION AND SPEED IN MPH < > PRES - MEAN SEA LEVEL PRESSURE IN INCHES OF HG < > WCI - WIND CHILL INDEX < > VSB - VISIBILITY IN MILES < > HX - HEAT INDEX < > TC - TEMPERATURE IN CELSIUS < > VRB - VARIABLE WIND DIRECTION < > < >>>>>>>>>>>>>>>>>>>>>>>>>>>> KEY <<<<<<<<<<<<<<<<<<<<<<<<<<<

USA.gov is the U.S. government's official web portal to all federal, state and local government web resources and services.